Weather in Chervona Dolina

Ukraine / Mykolaiv District     47°08′48″N   32°39′40″E
temp.,
°C
wind,
m/s
gust,
m/s
humid.,
%
clouds,
%
prec.,
mm/h
press.,
hPa
HPBL,
m
18 april, sun
sun1800:00+6wnw1255100 0.0 102010
03:00+6sw115492 0.0 101910
06:00+6nw115897 0.0 101910
09:00+10sw014797 0.0 1018298
12:00+14s1241100 0.0 10181507
15:00+15ssw213992 0.0 10171860
18:00+15s013959 0.0 10161756
21:00+11se1151100 0.0 101711
19 april, mon
mon1900:00+11s115892 0.0 101720
03:00+10sw127099 0.0 101726
06:00+9ne016985 0.0 101612
09:00+12ne2358100 0.0 1016439
12:00+15e2246100 0.0 10151806
15:00+14ene124942 0.1 10141351
18:00+14e3455100 0.1 1014218
21:00+12ene486393 0.1 1013256
20 april, tue
tue2000:00+12ne51065100 0.0 1010396
03:00+11ne51165100 0.1 1008482
06:00+8ne71387100 2.9 1005578
09:00+8ne91594100 14.6 1002813
12:00+9nne91493100 9.4 1000686
15:00+9n91489100 10.1 999974
18:00+8nnw101388100 1.2 10011224
21:00+8nw51189100 1.9 1006719
21 april, wed
wed2100:00+7wnw71384100 0.1 1009473
03:00+5w51088100 0.1 1012280
06:00+4wsw4788100 0.0 1014162
09:00+9w5768100 0.0 1016491
12:00+12w4753100 0.0 10171340
15:00+14wsw455599 0.1 10171572
18:00+13sw565991 0.3 10181090
21:00+9sw367830 0.3 1019116
22 april, thu
thu2200:00+7s36915 0.0 1020112
03:00+7s369258 0.0 1020118
06:00+8sse4888100 0.0 1020235
09:00+11s577899 0.0 1021413
12:00+15ssw675755 0.8 10211581
15:00+15ssw575897 1.8 10211517
18:00+14sw566370 0.6 10211188
21:00+10s368413 0.7 1022117